Buoy 41936

sailwx.info

Track history (hours):
 
Tides and Currents Weather Stations Pressure Air Temp Water Temp Dewpoint Dewpoint Depression Visibility Wind Speed Wind Dir Waves Ship Positions

Drifting buoy 41936

Last reported at 2014-Aug-28 09:00 UTC. Time now 2014-Aug-28 11:26 UTC.
Position N 30°28' W 066°48'.

Barometer 1016.0 mb
Water temperature 27.2 ° C

Date/timePositionNaut miles runAvg speedWind from/ knotsBaromVisibWave heightAir tempDewpointWater temp
2014-Aug-28 09:00N 30°28' W 066°48'0 0.0 1016.0 27.2
2014-Aug-28 08:00N 30°28' W 066°48'0 0.0 1016.0 27.2
2014-Aug-28 07:00N 30°28' W 066°48'0 0.0 1016.4 27.2
2014-Aug-28 06:00N 30°28' W 066°48'1 0.2 1016.5 27.2
2014-Aug-28 03:00N 30°28' W 066°48'0 0.0 1016.5 27.2
2014-Aug-28 02:00N 30°28' W 066°48'1 1.4 1016.5 27.2
2014-Aug-28 01:00N 30°29' W 066°50'1 0.2 1016.1 27.2
2014-Aug-27 21:00N 30°29' W 066°51'1 0.6 1015.7 27.3
2014-Aug-27 20:00N 30°28' W 066°51'2 1.0 1015.4 27.3
2014-Aug-27 18:00N 30°27' W 066°53'0 0.0 1016.2 27.3
2014-Aug-27 16:00N 30°27' W 066°53'1 0.7 1016.5 27.3
2014-Aug-27 14:00N 30°27' W 066°54'0 0.0 1015.7 27.3
2014-Aug-27 13:00N 30°27' W 066°54'0 0.2 1015.8 27.3
2014-Aug-27 11:00N 30°27' W 066°54'0 0.4 1015.4 27.3
2014-Aug-27 10:00N 30°27' W 066°54'1 0.9 1014.6 27.3
2014-Aug-27 09:00N 30°27' W 066°55'0 0.0 1014.1 27.3
2014-Aug-27 07:00N 30°27' W 066°55'3 0.7 1013.6 27.3
2014-Aug-27 02:00N 30°26' W 066°59'0 0.4 1014.0 27.3
2014-Aug-27 01:00N 30°26' W 066°59'0 0.0 1013.6 27.3
2014-Aug-27 00:00N 30°26' W 066°59'2 0.9 1013.0 27.3
2014-Aug-26 22:00N 30°25' W 067°01'2 0.4 1012.3 27.3
2014-Aug-26 18:00N 30°23' W 067°01'0 0.0 1014.2 27.2
2014-Aug-26 16:00N 30°23' W 067°01'0 0.3 1014.5 27.3
2014-Aug-26 15:00N 30°23' W 067°01'0 0.1 1014.6 27.4
2014-Aug-26 11:00N 30°23' W 067°00'0 0.2 1012.7 27.4
2014-Aug-26 10:00N 30°23' W 067°00'0 0.2 1012.4 27.4
2014-Aug-26 08:00N 30°24' W 067°00'1 0.9 1012.5 27.4
2014-Aug-26 07:00N 30°24' W 067°01'1 0.2 1012.8 27.4
2014-Aug-26 02:00N 30°24' W 067°00'1 1.0 1011.3 27.5
2014-Aug-26 01:00N 30°24' W 067°01'1 1.4 1010.9 27.5
2014-Aug-26 00:00N 30°24' W 067°03'0 0.0 1010.1 27.5
2014-Aug-25 23:00N 30°24' W 067°03'1 0.7 1008.7 27.5
2014-Aug-25 22:00N 30°24' W 067°02'0 0.1 1009.2 27.5
2014-Aug-25 21:00N 30°24' W 067°02'1 0.4 1009.1 27.5
2014-Aug-25 19:00N 30°23' W 067°03'1 1.2 1010.2 27.5
2014-Aug-25 18:00N 30°23' W 067°04'0 0.1 1009.7 27.5
2014-Aug-25 15:00N 30°23' W 067°04'0 0.3 1009.8 27.5
2014-Aug-25 14:00N 30°23' W 067°04'2 0.6 1009.1 27.5
2014-Aug-25 11:00N 30°21' W 067°04'0 0.4 1008.9 27.5
2014-Aug-25 10:00N 30°21' W 067°03'1 0.7 1009.5 27.6
2014-Aug-25 09:00N 30°20' W 067°03'3 1.4 1009.6 27.6
2014-Aug-25 07:00N 30°20' W 067°00'1 0.2 1010.1 27.7
2014-Aug-25 02:00N 30°20' W 066°60'4 0.5 1012.6 27.8
2014-Aug-24 19:00N 30°24' W 067°01'0 0.0 1011.6 28.0
2014-Aug-24 17:00N 30°24' W 067°01'0 0.0 1012.5 28.0
2014-Aug-24 16:00N 30°24' W 067°01'0 0.3 1012.5 28.0
2014-Aug-24 15:00N 30°24' W 067°02'0 0.0 1012.7 27.9
2014-Aug-24 14:00N 30°24' W 067°02'2 1.8 1012.2 27.9
2014-Aug-24 13:00N 30°23' W 067°03'1 0.3 1012.1 27.8
2014-Aug-24 11:00N 30°23' W 067°03'1 1.2 1012.2 27.8
2014-Aug-24 10:00N 30°22' W 067°02'0 0.0 1011.7 27.8
2014-Aug-24 09:00N 30°22' W 067°02'0 0.0 1011.7 27.8
2014-Aug-24 08:00N 30°22' W 067°02'1 0.5 1011.7 27.8
2014-Aug-24 07:00N 30°22' W 067°02'0 0.0 1011.6 27.8
2014-Aug-24 06:00N 30°22' W 067°02'1 0.5 1012.1 27.8
2014-Aug-24 03:00N 30°22' W 067°00'1 1.4 1013.0 27.9
2014-Aug-24 02:00N 30°23' W 067°00'1 1.1 1013.5 27.9
2014-Aug-24 01:00N 30°24' W 067°01'0 0.0 1012.9 27.9
2014-Aug-24 00:00N 30°24' W 067°01'1 0.4 1012.9 27.9
2014-Aug-23 21:00N 30°26' W 067°00'1 1.2 1012.8 27.9
2014-Aug-23 20:00N 30°27' W 067°01'3 1.1 1012.9 28.0
2014-Aug-23 17:00N 30°29' W 067°04'1 0.3 1014.7 27.9
2014-Aug-23 15:00N 30°28' W 067°03'0 0.4 1014.9 27.8
2014-Aug-23 14:00N 30°28' W 067°03'2 0.5 1014.6 27.8
2014-Aug-23 11:00N 30°28' W 067°05'0 0.4 1014.5 27.8
2014-Aug-23 10:00N 30°27' W 067°05'0 0.0 1013.8 27.8
2014-Aug-23 09:00N 30°27' W 067°05'0 0.5 1013.6 27.8
2014-Aug-23 08:00N 30°28' W 067°05'1 0.5 1013.4 27.8
2014-Aug-23 06:00N 30°28' W 067°04'2 0.4 1014.2 27.8
2014-Aug-23 02:00N 30°29' W 067°04'2 2.2 1016.6 27.9
2014-Aug-23 01:00N 30°32' W 067°04'0 0.0 1016.7 27.9
2014-Aug-22 23:00N 30°32' W 067°04'2 0.6 1016.6 28.0
2014-Aug-22 20:00N 30°33' W 067°05'1 0.5 1017.1 28.1
2014-Aug-22 19:00N 30°33' W 067°06'2 0.8 1017.7 28.1
2014-Aug-22 16:00N 30°35' W 067°08'0 0.1 1018.5 28.0
2014-Aug-22 15:00N 30°35' W 067°08'1 1.3 1019.3 28.0
2014-Aug-22 14:00N 30°35' W 067°10'0 0.0 1019.5 27.9
2014-Aug-22 13:00N 30°35' W 067°10'0 0.1 1019.3 27.9
2014-Aug-22 10:00N 30°35' W 067°10'0 0.1 991.9 -0.1
2014-Aug-22 09:00N 30°35' W 067°10'0 0.2 1018.2 27.9
2014-Aug-22 08:00N 30°35' W 067°10'0 0.0 1018.5 27.9
2014-Aug-22 06:00N 30°35' W 067°10'2 0.6 1019.3 27.9
2014-Aug-22 03:00N 30°36' W 067°09'1 1.1 1020.7 27.9
2014-Aug-22 02:00N 30°38' W 067°09'0 0.0 1020.6 27.9
2014-Aug-22 01:00N 30°38' W 067°09'2 1.6 1020.7 27.9
2014-Aug-22 00:00N 30°39' W 067°10'1 0.7 1020.2 27.9
2014-Aug-21 23:00N 30°40' W 067°10'1 0.6 1019.9 27.9
2014-Aug-21 22:00N 30°40' W 067°10'1 0.6 1019.6 28.0
2014-Aug-21 21:00N 30°41' W 067°11'1 1.1 1019.8 28.0
2014-Aug-21 20:00N 30°42' W 067°11'3 1.4 1019.8 28.0
2014-Aug-21 18:00N 30°44' W 067°13'1 0.6 1020.1 28.0
2014-Aug-21 16:00N 30°43' W 067°15'1 0.5 1021.3 27.9
2014-Aug-21 14:00N 30°43' W 067°16'0 0.0 1021.4 27.8
2014-Aug-21 13:00N 30°43' W 067°16'2 0.9 1021.5 27.8
2014-Aug-21 11:00N 30°43' W 067°18'0 0.3 1020.6 27.7
2014-Aug-21 10:00N 30°43' W 067°18'1 0.9 1020.3 27.7
2014-Aug-21 09:00N 30°42' W 067°18'0 0.0 1020.1 27.7
2014-Aug-21 08:00N 30°42' W 067°18'4 1.8 1019.8 27.7
2014-Aug-21 06:00N 30°46' W 067°17'0 0.0 1020.0 27.7
2014-Aug-21 03:00N 30°46' W 067°17'1 0.9 1020.3 27.7
2014-Aug-21 02:00N 30°46' W 067°17'0 0.0 1020.4 27.7
2014-Aug-21 01:00N 30°46' W 067°17'2 2.1 1020.2 27.7
2014-Aug-21 00:00N 30°48' W 067°19'1 0.7 1019.9 27.7
2014-Aug-20 23:00N 30°49' W 067°19'1 0.7 1019.7 27.7
2014-Aug-20 22:00N 30°49' W 067°20'2 1.8 1019.5 27.7
2014-Aug-20 21:00N 30°50' W 067°21'2 2.3 1019.4 27.7
2014-Aug-20 20:00N 30°51' W 067°24'2 1.2 1019.4 27.7
2014-Aug-20 18:00N 30°51' W 067°27'0 0.0 1019.5 27.7
2014-Aug-20 17:00N 30°51' W 067°27'0 0.0 1019.7 27.7
2014-Aug-20 16:00N 30°51' W 067°27'0 0.0 1019.9 27.7
2014-Aug-20 15:00N 30°51' W 067°27'0 0.4 1019.8 27.7
2014-Aug-20 14:00N 30°51' W 067°27'1 0.4 1019.2 27.7
2014-Aug-20 11:00N 30°51' W 067°28'0 0.2 1017.6 27.6
2014-Aug-20 10:00N 30°50' W 067°28'0 0.5 1017.3 27.6
2014-Aug-20 09:00N 30°51' W 067°27'1 1.1 1016.8 27.6
2014-Aug-20 08:00N 30°51' W 067°29'6 0.6 1016.4 27.6
2014-Aug-19 22:00N 30°57' W 067°31'1 1.3 1016.8 27.7
2014-Aug-19 21:00N 30°57' W 067°32'2 0.7 1016.5 27.7
2014-Aug-19 18:00N 30°57' W 067°35'3 0.5 1016.6 27.8
2014-Aug-19 13:00N 30°55' W 067°36'0 0.1 1016.3 27.6
2014-Aug-19 11:00N 30°55' W 067°36'0 0.1 1015.6 27.6
2014-Aug-19 09:00N 30°55' W 067°36'1 0.5 1014.6 27.6
2014-Aug-19 08:00N 30°55' W 067°36'1 1.4 1014.5 27.6
2014-Aug-19 07:00N 30°57' W 067°36'1 0.3 1014.5 27.6
2014-Aug-19 03:00N 30°58' W 067°36'0 0.0 1015.8 27.6
2014-Aug-19 02:00N 30°58' W 067°36'2 1.2 1015.5 27.7
2014-Aug-19 00:00N 30°60' W 067°38'0 0.4 1015.1 27.7
2014-Aug-18 23:00N 30°60' W 067°38'0 0.4 1015.0 27.7
2014-Aug-18 22:00N 30°60' W 067°39'1 1.1 1015.0 27.7
2014-Aug-18 21:00N 30°60' W 067°40'3 1.1 1014.7 27.8
2014-Aug-18 18:00N 30°58' W 067°43'0 0.1 1015.6 27.8
2014-Aug-18 15:00N 30°58' W 067°43'1 1.5 1016.7 27.6
2014-Aug-18 14:00N 30°57' W 067°42'0 0.0 1016.7 27.6
2014-Aug-18 13:00N 30°57' W 067°42'1 0.4 1016.4 27.6
2014-Aug-18 11:00N 30°57' W 067°43'0 0.1 1016.2 27.5
2014-Aug-18 09:00N 30°57' W 067°43'   1015.5 27.5
Track history (hours):
 
Tides and Currents Weather Stations Pressure Air Temp Water Temp Dewpoint Dewpoint Depression Visibility Wind Speed Wind Dir Waves Ship Positions

Drifting buoy 41936

Last reported at 2014-Aug-28 09:00 UTC. Time now 2014-Aug-28 11:26 UTC.
Position N 30°28' W 066°48'.

Barometer 1016.0 mb
Water temperature 27.2 ° C

Date/timePositionNaut miles runAvg speedWind from/ knotsBaromVisibWave heightAir tempDewpointWater temp
2014-Aug-28 09:00N 30°28' W 066°48'0 0.0 1016.0 27.2
2014-Aug-28 08:00N 30°28' W 066°48'0 0.0 1016.0 27.2
2014-Aug-28 07:00N 30°28' W 066°48'0 0.0 1016.4 27.2
2014-Aug-28 06:00N 30°28' W 066°48'1 0.2 1016.5 27.2
2014-Aug-28 03:00N 30°28' W 066°48'0 0.0 1016.5 27.2
2014-Aug-28 02:00N 30°28' W 066°48'1 1.4 1016.5 27.2
2014-Aug-28 01:00N 30°29' W 066°50'1 0.2 1016.1 27.2
2014-Aug-27 21:00N 30°29' W 066°51'1 0.6 1015.7 27.3
2014-Aug-27 20:00N 30°28' W 066°51'2 1.0 1015.4 27.3
2014-Aug-27 18:00N 30°27' W 066°53'0 0.0 1016.2 27.3
2014-Aug-27 16:00N 30°27' W 066°53'1 0.7 1016.5 27.3
2014-Aug-27 14:00N 30°27' W 066°54'0 0.0 1015.7 27.3
2014-Aug-27 13:00N 30°27' W 066°54'0 0.2 1015.8 27.3
2014-Aug-27 11:00N 30°27' W 066°54'0 0.4 1015.4 27.3
2014-Aug-27 10:00N 30°27' W 066°54'1 0.9 1014.6 27.3
2014-Aug-27 09:00N 30°27' W 066°55'0 0.0 1014.1 27.3
2014-Aug-27 07:00N 30°27' W 066°55'3 0.7 1013.6 27.3
2014-Aug-27 02:00N 30°26' W 066°59'0 0.4 1014.0 27.3
2014-Aug-27 01:00N 30°26' W 066°59'0 0.0 1013.6 27.3
2014-Aug-27 00:00N 30°26' W 066°59'2 0.9 1013.0 27.3
2014-Aug-26 22:00N 30°25' W 067°01'2 0.4 1012.3 27.3
2014-Aug-26 18:00N 30°23' W 067°01'0 0.0 1014.2 27.2
2014-Aug-26 16:00N 30°23' W 067°01'0 0.3 1014.5 27.3
2014-Aug-26 15:00N 30°23' W 067°01'0 0.1 1014.6 27.4
2014-Aug-26 11:00N 30°23' W 067°00'0 0.2 1012.7 27.4
2014-Aug-26 10:00N 30°23' W 067°00'0 0.2 1012.4 27.4
2014-Aug-26 08:00N 30°24' W 067°00'1 0.9 1012.5 27.4
2014-Aug-26 07:00N 30°24' W 067°01'1 0.2 1012.8 27.4
2014-Aug-26 02:00N 30°24' W 067°00'1 1.0 1011.3 27.5
2014-Aug-26 01:00N 30°24' W 067°01'1 1.4 1010.9 27.5
2014-Aug-26 00:00N 30°24' W 067°03'0 0.0 1010.1 27.5
2014-Aug-25 23:00N 30°24' W 067°03'1 0.7 1008.7 27.5
2014-Aug-25 22:00N 30°24' W 067°02'0 0.1 1009.2 27.5
2014-Aug-25 21:00N 30°24' W 067°02'1 0.4 1009.1 27.5
2014-Aug-25 19:00N 30°23' W 067°03'1 1.2 1010.2 27.5
2014-Aug-25 18:00N 30°23' W 067°04'0 0.1 1009.7 27.5
2014-Aug-25 15:00N 30°23' W 067°04'0 0.3 1009.8 27.5
2014-Aug-25 14:00N 30°23' W 067°04'2 0.6 1009.1 27.5
2014-Aug-25 11:00N 30°21' W 067°04'0 0.4 1008.9 27.5
2014-Aug-25 10:00N 30°21' W 067°03'1 0.7 1009.5 27.6
2014-Aug-25 09:00N 30°20' W 067°03'3 1.4 1009.6 27.6
2014-Aug-25 07:00N 30°20' W 067°00'1 0.2 1010.1 27.7
2014-Aug-25 02:00N 30°20' W 066°60'4 0.5 1012.6 27.8
2014-Aug-24 19:00N 30°24' W 067°01'0 0.0 1011.6 28.0
2014-Aug-24 17:00N 30°24' W 067°01'0 0.0 1012.5 28.0
2014-Aug-24 16:00N 30°24' W 067°01'0 0.3 1012.5 28.0
2014-Aug-24 15:00N 30°24' W 067°02'0 0.0 1012.7 27.9
2014-Aug-24 14:00N 30°24' W 067°02'2 1.8 1012.2 27.9
2014-Aug-24 13:00N 30°23' W 067°03'1 0.3 1012.1 27.8
2014-Aug-24 11:00N 30°23' W 067°03'1 1.2 1012.2 27.8
2014-Aug-24 10:00N 30°22' W 067°02'0 0.0 1011.7 27.8
2014-Aug-24 09:00N 30°22' W 067°02'0 0.0 1011.7 27.8
2014-Aug-24 08:00N 30°22' W 067°02'1 0.5 1011.7 27.8
2014-Aug-24 07:00N 30°22' W 067°02'0 0.0 1011.6 27.8
2014-Aug-24 06:00N 30°22' W 067°02'1 0.5 1012.1 27.8
2014-Aug-24 03:00N 30°22' W 067°00'1 1.4 1013.0 27.9
2014-Aug-24 02:00N 30°23' W 067°00'1 1.1 1013.5 27.9
2014-Aug-24 01:00N 30°24' W 067°01'0 0.0 1012.9 27.9
2014-Aug-24 00:00N 30°24' W 067°01'1 0.4 1012.9 27.9
2014-Aug-23 21:00N 30°26' W 067°00'1 1.2 1012.8 27.9
2014-Aug-23 20:00N 30°27' W 067°01'3 1.1 1012.9 28.0
2014-Aug-23 17:00N 30°29' W 067°04'1 0.3 1014.7 27.9
2014-Aug-23 15:00N 30°28' W 067°03'0 0.4 1014.9 27.8
2014-Aug-23 14:00N 30°28' W 067°03'2 0.5 1014.6 27.8
2014-Aug-23 11:00N 30°28' W 067°05'0 0.4 1014.5 27.8
2014-Aug-23 10:00N 30°27' W 067°05'0 0.0 1013.8 27.8
2014-Aug-23 09:00N 30°27' W 067°05'0 0.5 1013.6 27.8
2014-Aug-23 08:00N 30°28' W 067°05'1 0.5 1013.4 27.8
2014-Aug-23 06:00N 30°28' W 067°04'2 0.4 1014.2 27.8
2014-Aug-23 02:00N 30°29' W 067°04'2 2.2 1016.6 27.9
2014-Aug-23 01:00N 30°32' W 067°04'0 0.0 1016.7 27.9
2014-Aug-22 23:00N 30°32' W 067°04'2 0.6 1016.6 28.0
2014-Aug-22 20:00N 30°33' W 067°05'1 0.5 1017.1 28.1
2014-Aug-22 19:00N 30°33' W 067°06'2 0.8 1017.7 28.1
2014-Aug-22 16:00N 30°35' W 067°08'0 0.1 1018.5 28.0
2014-Aug-22 15:00N 30°35' W 067°08'1 1.3 1019.3 28.0
2014-Aug-22 14:00N 30°35' W 067°10'0 0.0 1019.5 27.9
2014-Aug-22 13:00N 30°35' W 067°10'0 0.1 1019.3 27.9
2014-Aug-22 10:00N 30°35' W 067°10'0 0.1 991.9 -0.1
2014-Aug-22 09:00N 30°35' W 067°10'0 0.2 1018.2 27.9
2014-Aug-22 08:00N 30°35' W 067°10'0 0.0 1018.5 27.9
2014-Aug-22 06:00N 30°35' W 067°10'2 0.6 1019.3 27.9
2014-Aug-22 03:00N 30°36' W 067°09'1 1.1 1020.7 27.9
2014-Aug-22 02:00N 30°38' W 067°09'0 0.0 1020.6 27.9
2014-Aug-22 01:00N 30°38' W 067°09'2 1.6 1020.7 27.9
2014-Aug-22 00:00N 30°39' W 067°10'1 0.7 1020.2 27.9
2014-Aug-21 23:00N 30°40' W 067°10'1 0.6 1019.9 27.9
2014-Aug-21 22:00N 30°40' W 067°10'1 0.6 1019.6 28.0
2014-Aug-21 21:00N 30°41' W 067°11'1 1.1 1019.8 28.0
2014-Aug-21 20:00N 30°42' W 067°11'3 1.4 1019.8 28.0
2014-Aug-21 18:00N 30°44' W 067°13'1 0.6 1020.1 28.0
2014-Aug-21 16:00N 30°43' W 067°15'1 0.5 1021.3 27.9
2014-Aug-21 14:00N 30°43' W 067°16'0 0.0 1021.4 27.8
2014-Aug-21 13:00N 30°43' W 067°16'2 0.9 1021.5 27.8
2014-Aug-21 11:00N 30°43' W 067°18'0 0.3 1020.6 27.7
2014-Aug-21 10:00N 30°43' W 067°18'1 0.9 1020.3 27.7
2014-Aug-21 09:00N 30°42' W 067°18'0 0.0 1020.1 27.7
2014-Aug-21 08:00N 30°42' W 067°18'4 1.8 1019.8 27.7
2014-Aug-21 06:00N 30°46' W 067°17'0 0.0 1020.0 27.7
2014-Aug-21 03:00N 30°46' W 067°17'1 0.9 1020.3 27.7
2014-Aug-21 02:00N 30°46' W 067°17'0 0.0 1020.4 27.7
2014-Aug-21 01:00N 30°46' W 067°17'2 2.1 1020.2 27.7
2014-Aug-21 00:00N 30°48' W 067°19'1 0.7 1019.9 27.7
2014-Aug-20 23:00N 30°49' W 067°19'1 0.7 1019.7 27.7
2014-Aug-20 22:00N 30°49' W 067°20'2 1.8 1019.5 27.7
2014-Aug-20 21:00N 30°50' W 067°21'2 2.3 1019.4 27.7
2014-Aug-20 20:00N 30°51' W 067°24'2 1.2 1019.4 27.7
2014-Aug-20 18:00N 30°51' W 067°27'0 0.0 1019.5 27.7
2014-Aug-20 17:00N 30°51' W 067°27'0 0.0 1019.7 27.7
2014-Aug-20 16:00N 30°51' W 067°27'0 0.0 1019.9 27.7
2014-Aug-20 15:00N 30°51' W 067°27'0 0.4 1019.8 27.7
2014-Aug-20 14:00N 30°51' W 067°27'1 0.4 1019.2 27.7
2014-Aug-20 11:00N 30°51' W 067°28'0 0.2 1017.6 27.6
2014-Aug-20 10:00N 30°50' W 067°28'0 0.5 1017.3 27.6
2014-Aug-20 09:00N 30°51' W 067°27'1 1.1 1016.8 27.6
2014-Aug-20 08:00N 30°51' W 067°29'6 0.6 1016.4 27.6
2014-Aug-19 22:00N 30°57' W 067°31'1 1.3 1016.8 27.7
2014-Aug-19 21:00N 30°57' W 067°32'2 0.7 1016.5 27.7
2014-Aug-19 18:00N 30°57' W 067°35'3 0.5 1016.6 27.8
2014-Aug-19 13:00N 30°55' W 067°36'0 0.1 1016.3 27.6
2014-Aug-19 11:00N 30°55' W 067°36'0 0.1 1015.6 27.6
2014-Aug-19 09:00N 30°55' W 067°36'1 0.5 1014.6 27.6
2014-Aug-19 08:00N 30°55' W 067°36'1 1.4 1014.5 27.6
2014-Aug-19 07:00N 30°57' W 067°36'1 0.3 1014.5 27.6
2014-Aug-19 03:00N 30°58' W 067°36'0 0.0 1015.8 27.6
2014-Aug-19 02:00N 30°58' W 067°36'2 1.2 1015.5 27.7
2014-Aug-19 00:00N 30°60' W 067°38'0 0.4 1015.1 27.7
2014-Aug-18 23:00N 30°60' W 067°38'0 0.4 1015.0 27.7
2014-Aug-18 22:00N 30°60' W 067°39'1 1.1 1015.0 27.7
2014-Aug-18 21:00N 30°60' W 067°40'3 1.1 1014.7 27.8
2014-Aug-18 18:00N 30°58' W 067°43'0 0.1 1015.6 27.8
2014-Aug-18 15:00N 30°58' W 067°43'1 1.5 1016.7 27.6
2014-Aug-18 14:00N 30°57' W 067°42'0 0.0 1016.7 27.6
2014-Aug-18 13:00N 30°57' W 067°42'1 0.4 1016.4 27.6
2014-Aug-18 11:00N 30°57' W 067°43'0 0.1 1016.2 27.5
2014-Aug-18 09:00N 30°57' W 067°43'   1015.5 27.5

Dump ship's entire track history